Chippewa, MI

2:54 AM EDT on October 22, 2019 (GMT -0400)
Chippewa County International

Weather History for KCIU - August, 2019

Change the Weather History Date:

Sunday, August 4, 2019

  Actual Average Record
Temperature  
Mean Temperature 68 °F -  
Max Temperature 79 °F 75 °F 89 °F (2012)
Min Temperature 57 °F 52 °F 42 °F (1978)
Cooling Degree Days 3    
Growing Degree Days 18 (Base 50)    
Moisture  
Dew Point 53 °F    
Average Humidity 59    
Maximum Humidity 84    
Minimum Humidity 40    
Precipitation  
Precipitation 0.00 in - - ()
Sea Level Pressure  
Sea Level Pressure 30.04 in    
Wind  
Wind Speed 6 mph (SE)    
Max Wind Speed 10 mph    
Max Gust Speed -    
Visibility 10 miles    
Events      
Averages and records for this station are not official NWS values.
T = Trace of Precipitation, MM = Missing Value Source: NWS Daily Summary

Daily Weather History Graph

Daily Weather History Graph

Search for Another Location

Airport or City:

Astronomy

Aug. 04, 2019 Rise Set
Actual Time 6:22 AM EDT 9:04 PM EDT
Civil Twilight 5:48 AM EDT 9:38 PM EDT
Nautical Twilight 5:04 AM EDT 10:21 PM EDT
Astronomical Twilight 4:14 AM EDT 11:12 PM EDT
Moon 10:39 AM EDT (8/4) 11:28 PM EDT (8/4)
Length of Visible Light 15h 49m
Length of Day
14h 41m
Waxing Crescent, 18% of the Moon is Illuminated
Aug 4
Waxing Crescent
Aug 7
First Quarter
Aug 15
Full
Aug 23
Last Quarter
Aug 30
New

Hourly Weather History & Observations

Time (EDT) Temp. Dew Point Humidity Pressure Visibility Wind Dir Wind Speed Gust Speed Precip Events Conditions
12:56 AM 57.9 °F 53.1 °F 84% 30.05 in 10.0 mi Calm Calm - N/A   Clear
1:56 AM 64.0 °F 54.0 °F 70% 30.06 in 10.0 mi East 10.4 mph - N/A   Clear
2:56 AM 62.1 °F 53.1 °F 72% 30.06 in 10.0 mi East 9.2 mph - N/A   Scattered Clouds
3:56 AM 62.1 °F 51.1 °F 67% 30.06 in 10.0 mi ENE 8.1 mph - N/A   Scattered Clouds
4:56 AM 60.1 °F 51.1 °F 72% 30.07 in 10.0 mi ENE 8.1 mph - N/A   Mostly Cloudy
5:56 AM 60.1 °F 50.0 °F 69% 30.06 in 10.0 mi ENE 6.9 mph - N/A   Clear
6:56 AM 57.9 °F 50.0 °F 75% 30.08 in 10.0 mi ENE 5.8 mph - N/A   Clear
7:56 AM 62.1 °F 51.1 °F 67% 30.09 in 10.0 mi East 6.9 mph - N/A   Clear
8:56 AM 64.9 °F 52.0 °F 63% 30.09 in 10.0 mi ESE 6.9 mph - N/A   Partly Cloudy
9:56 AM 70.0 °F 51.1 °F 51% 30.09 in 10.0 mi SE 10.4 mph - N/A   Clear
10:56 AM 73.0 °F 51.1 °F 46% 30.08 in 10.0 mi SE 9.2 mph - N/A   Clear
11:56 AM 73.9 °F 52.0 °F 46% 30.09 in 10.0 mi Variable 4.6 mph - N/A   Clear
12:56 PM 75.0 °F 53.1 °F 46% 30.06 in 10.0 mi ENE 6.9 mph - N/A   Clear
1:56 PM 75.0 °F 53.1 °F 46% 30.06 in 10.0 mi Variable 4.6 mph - N/A   Clear
2:56 PM 77.0 °F 53.1 °F 43% 30.05 in 10.0 mi East 6.9 mph - N/A   Clear
3:56 PM 79.0 °F 53.1 °F 40% 30.04 in 10.0 mi SW 8.1 mph - N/A   Clear
4:56 PM 78.1 °F 53.1 °F 42% 30.01 in 10.0 mi Variable 3.5 mph - N/A   Clear
5:56 PM 77.0 °F 53.1 °F 43% 30.01 in 10.0 mi SSE 8.1 mph - N/A   Clear
6:56 PM 75.9 °F 53.1 °F 45% 30.01 in 10.0 mi SSE 10.4 mph - N/A   Clear
7:56 PM 73.0 °F 53.1 °F 49% 29.99 in 10.0 mi South 9.2 mph - N/A   Clear
8:56 PM 68.0 °F 54.0 °F 61% 29.99 in 10.0 mi SSW 4.6 mph - N/A   Clear
9:56 PM 64.0 °F 53.1 °F 67% 30.00 in 10.0 mi SSW 4.6 mph - N/A   Clear
10:56 PM 63.0 °F 55.9 °F 78% 29.99 in 10.0 mi South 6.9 mph - N/A   Clear
11:56 PM 61.0 °F 55.9 °F 83% 29.98 in 10.0 mi South 4.6 mph - N/A   Clear